• In Kazakhstan
  • List of Countries
  • For 7 days
  • Water Temperature
  • Satellite Maps
  • Weather Map
  • News
  • Weather Widgets
  • user-avatar
    Login

    Hourly Weather Bangaon

    Today, 23 November, Thursday

    Time Temperature Precipitation Wind Pressure Humidity
    00:00 +22°C° 0 mm 1 mps 757 mmHg 44%
    01:00 +22°C° 0 mm 1 mps 757 mmHg 46%
    02:00 +20°C° 0 mm 2 mps 757 mmHg 47%
    03:00 +20°C° 0 mm 2 mps 757 mmHg 48%
    04:00 +19°C° 0 mm 2 mps 757 mmHg 49%
    05:00 +19°C° 0 mm 2 mps 757 mmHg 49%
    06:00 +19°C° 0 mm 2 mps 757 mmHg 50%
    07:00 +20°C° 0 mm 2 mps 758 mmHg 46%
    08:00 +22°C° 0 mm 3 mps 758 mmHg 43%
    09:00 +24°C° 0 mm 3 mps 759 mmHg 40%
    10:00 +26°C° 0 mm 3 mps 758 mmHg 36%
    11:00 +27°C° 0 mm 3 mps 758 mmHg 32%
    12:00 +29°C° 0 mm 3 mps 757 mmHg 26%
    13:00 +29°C° 0 mm 3 mps 757 mmHg 26%
    14:00 +29°C° 0 mm 3 mps 756 mmHg 26%
    15:00 +30°C° 0 mm 3 mps 756 mmHg 25%
    16:00 +28°C° 0 mm 3 mps 756 mmHg 29%
    17:00 +26°C° 0 mm 2 mps 756 mmHg 33%
    18:00 +24°C° 0 mm 2 mps 756 mmHg 36%
    19:00 +24°C° 0 mm 2 mps 757 mmHg 38%
    20:00 +23°C° 0 mm 2 mps 757 mmHg 39%
    21:00 +21°C° 0 mm 2 mps 758 mmHg 41%
    22:00 +21°C° 0 mm 2 mps 758 mmHg 42%
    23:00 +20°C° 0 mm 2 mps 758 mmHg 44%

    Tomorrow, 24 November, Friday

    Time Temperature Precipitation Wind Pressure Humidity
    00:00 +20°C° 0 mm 2 mps 758 mmHg 46%
    01:00 +19°C° 0 mm 2 mps 758 mmHg 47%
    02:00 +19°C° 0 mm 3 mps 758 mmHg 48%
    03:00 +18°C° 0 mm 3 mps 758 mmHg 49%
    04:00 +18°C° 0 mm 3 mps 758 mmHg 49%
    05:00 +18°C° 0 mm 3 mps 758 mmHg 49%
    06:00 +17°C° 0 mm 3 mps 758 mmHg 49%
    07:00 +19°C° 0 mm 3 mps 759 mmHg 47%
    08:00 +21°C° 0 mm 3 mps 759 mmHg 44%
    09:00 +22°C° 0 mm 3 mps 760 mmHg 42%
    10:00 +25°C° 0 mm 3 mps 760 mmHg 37%
    11:00 +27°C° 0 mm 3 mps 759 mmHg 33%
    12:00 +28°C° 0 mm 3 mps 759 mmHg 28%
    13:00 +29°C° 0 mm 3 mps 758 mmHg 27%
    14:00 +29°C° 0 mm 2 mps 758 mmHg 25%
    15:00 +29°C° 0 mm 2 mps 757 mmHg 24%
    16:00 +28°C° 0 mm 2 mps 757 mmHg 28%
    17:00 +26°C° 0 mm 2 mps 757 mmHg 31%
    18:00 +24°C° 0 mm 2 mps 757 mmHg 34%
    19:00 +23°C° 0 mm 2 mps 758 mmHg 36%
    20:00 +23°C° 0 mm 2 mps 758 mmHg 37%
    21:00 +21°C° 0 mm 2 mps 759 mmHg 39%
    22:00 +21°C° 0 mm 2 mps 759 mmHg 40%
    23:00 +20°C° 0 mm 2 mps 759 mmHg 42%

    Day after tomorrow, 25 November, Saturday

    Time Temperature Precipitation Wind Pressure Humidity
    00:00 +20°C° 0 mm 2 mps 759 mmHg 44%
    01:00 +19°C° 0 mm 2 mps 759 mmHg 46%
    02:00 +19°C° 0 mm 2 mps 759 mmHg 47%
    03:00 +18°C° 0 mm 2 mps 759 mmHg 49%
    04:00 +18°C° 0 mm 2 mps 759 mmHg 50%
    05:00 +18°C° 0 mm 2 mps 759 mmHg 51%
    06:00 +17°C° 0 mm 2 mps 759 mmHg 52%
    07:00 +19°C° 0 mm 2 mps 760 mmHg 48%
    08:00 +21°C° 0 mm 2 mps 760 mmHg 45%
    09:00 +23°C° 0 mm 2 mps 761 mmHg 41%
    10:00 +25°C° 0 mm 2 mps 761 mmHg 37%
    11:00 +26°C° 0 mm 2 mps 760 mmHg 33%
    12:00 +28°C° 0 mm 2 mps 760 mmHg 29%
    13:00 +28°C° 0 mm 2 mps 759 mmHg 28%
    14:00 +29°C° 0 mm 3 mps 758 mmHg 27%
    15:00 +29°C° 0 mm 3 mps 758 mmHg 26%
    16:00 +27°C° 0 mm 2 mps 758 mmHg 29%
    17:00 +25°C° 0 mm 2 mps 758 mmHg 33%
    18:00 +24°C° 0 mm 2 mps 758 mmHg 37%
    19:00 +23°C° 0 mm 2 mps 759 mmHg 38%
    20:00 +21°C° 0 mm 2 mps 759 mmHg 39%
    21:00 +21°C° 0 mm 2 mps 760 mmHg 40%
    22:00 +20°C° 0 mm 2 mps 760 mmHg 42%
    23:00 +20°C° 0 mm 2 mps 760 mmHg 43%

    26 November, Sunday

    Time Temperature Precipitation Wind Pressure Humidity
    00:00 +20°C° 0 mm 2 mps 760 mmHg 44%
    01:00 +19°C° 0 mm 2 mps 760 mmHg 46%
    02:00 +19°C° 0 mm 2 mps 759 mmHg 48%
    03:00 +19°C° 0 mm 2 mps 759 mmHg 51%
    04:00 +19°C° 0 mm 2 mps 759 mmHg 53%
    05:00 +18°C° 0 mm 2 mps 759 mmHg 55%
    06:00 +18°C° 0 mm 2 mps 760 mmHg 58%
    07:00 +20°C° 0 mm 2 mps 760 mmHg 56%
    08:00 +21°C° 0 mm 2 mps 761 mmHg 54%
    09:00 +24°C° 0 mm 2 mps 761 mmHg 52%
    10:00 +26°C° 0 mm 2 mps 761 mmHg 48%
    11:00 +27°C° 0 mm 2 mps 760 mmHg 44%
    12:00 +28°C° 0 mm 2 mps 760 mmHg 40%
    13:00 +29°C° 0 mm 2 mps 759 mmHg 38%
    14:00 +29°C° 0 mm 2 mps 758 mmHg 36%
    15:00 +30°C° 0 mm 2 mps 757 mmHg 34%
    16:00 +28°C° 0 mm 2 mps 757 mmHg 38%
    17:00 +27°C° 0 mm 2 mps 758 mmHg 42%
    18:00 +25°C° 0 mm 2 mps 758 mmHg 46%
    19:00 +24°C° 0 mm 2 mps 758 mmHg 47%
    20:00 +24°C° 0 mm 2 mps 759 mmHg 48%
    21:00 +23°C° 0 mm 2 mps 759 mmHg 49%
    22:00 +23°C° 0 mm 2 mps 759 mmHg 50%
    23:00 +21°C° 0 mm 3 mps 759 mmHg 50%

    27 November, Monday

    Time Temperature Precipitation Wind Pressure Humidity
    00:00 +21°C° 0 mm 3 mps 759 mmHg 50%
    01:00 +21°C° 0 mm 2 mps 758 mmHg 52%
    02:00 +20°C° 0 mm 2 mps 758 mmHg 53%
    03:00 +20°C° 0 mm 2 mps 758 mmHg 54%
    04:00 +19°C° 0 mm 2 mps 758 mmHg 57%
    05:00 +20°C° 0 mm 1 mps 758 mmHg 59%
    06:00 +20°C° 0 mm 1 mps 759 mmHg 61%
    07:00 +21°C° 0 mm 1 mps 759 mmHg 58%
    08:00 +23°C° 0 mm 1 mps 760 mmHg 55%
    09:00 +24°C° 0 mm 2 mps 760 mmHg 52%
    10:00 +26°C° 0 mm 2 mps 760 mmHg 48%
    11:00 +27°C° 0 mm 2 mps 759 mmHg 44%
    12:00 +29°C° 0 mm 3 mps 759 mmHg 39%
    13:00 +29°C° 0 mm 3 mps 758 mmHg 38%
    14:00 +29°C° 0 mm 3 mps 757 mmHg 36%
    15:00 +30°C° 0 mm 3 mps 756 mmHg 35%
    16:00 +28°C° 0 mm 3 mps 756 mmHg 39%
    17:00 +27°C° 0 mm 2 mps 756 mmHg 43%
    18:00 +25°C° 0 mm 2 mps 757 mmHg 47%
    19:00 +24°C° 0 mm 2 mps 757 mmHg 48%
    20:00 +24°C° 0 mm 2 mps 757 mmHg 50%
    21:00 +23°C° 0 mm 2 mps 758 mmHg 51%
    22:00 +23°C° 0 mm 2 mps 758 mmHg 52%
    23:00 +22°C° 0 mm 1 mps 758 mmHg 53%

    28 November, Tuesday

    Time Temperature Precipitation Wind Pressure Humidity
    00:00 +22°C° 0 mm 1 mps 757 mmHg 54%
    01:00 +21°C° 0 mm 1 mps 757 mmHg 55%
    02:00 +21°C° 0 mm 1 mps 757 mmHg 56%
    03:00 +21°C° 0 mm 1 mps 757 mmHg 57%
    04:00 +20°C° 0 mm 1 mps 757 mmHg 58%
    05:00 +20°C° 0 mm 1 mps 758 mmHg 60%
    06:00 +19°C° 0 mm 1 mps 758 mmHg 61%
    07:00 +21°C° 0 mm 1 mps 758 mmHg 57%
    08:00 +23°C° 0 mm 1 mps 759 mmHg 53%
    09:00 +24°C° 0 mm 1 mps 760 mmHg 48%
    10:00 +26°C° 0 mm 2 mps 759 mmHg 43%
    11:00 +27°C° 0 mm 2 mps 759 mmHg 38%
    12:00 +29°C° 0 mm 2 mps 758 mmHg 33%
    13:00 +29°C° 0 mm 2 mps 758 mmHg 31%
    14:00 +29°C° 0 mm 2 mps 757 mmHg 29%
    15:00 +30°C° 0 mm 2 mps 757 mmHg 27%
    16:00 +28°C° 0 mm 2 mps 757 mmHg 30%
    17:00 +26°C° 0 mm 2 mps 757 mmHg 33%
    18:00 +25°C° 0 mm 2 mps 757 mmHg 36%
    19:00 +24°C° 0 mm 2 mps 758 mmHg 37%
    20:00 +24°C° 0 mm 2 mps 758 mmHg 38%
    21:00 +23°C° 0 mm 2 mps 758 mmHg 39%
    22:00 +21°C° 0 mm 2 mps 758 mmHg 40%
    23:00 +21°C° 0 mm 2 mps 758 mmHg 41%
    Show more